Year,Month,Day,Hour,Minute,Value (Times are PST for temperature in C)
2015,06,23,00,00,13.20
2015,06,23,00,01,13.10
2015,06,23,00,02,13.10
2015,06,23,00,03,13.10
2015,06,23,00,04,13.10
2015,06,23,00,05,13.10
2015,06,23,00,06,13.00
2015,06,23,00,07,13.00
2015,06,23,00,08,13.00
2015,06,23,00,09,12.90
2015,06,23,00,10,12.90
2015,06,23,00,11,12.90
2015,06,23,00,12,12.90
2015,06,23,00,13,12.80
2015,06,23,00,14,12.80
2015,06,23,00,15,12.80
2015,06,23,00,16,12.80
2015,06,23,00,17,12.80
2015,06,23,00,18,12.80
2015,06,23,00,19,12.70
2015,06,23,00,20,12.70
2015,06,23,00,21,12.70
2015,06,23,00,22,12.70
2015,06,23,00,23,12.70
2015,06,23,00,24,12.70
2015,06,23,00,25,12.70
2015,06,23,00,26,12.60
2015,06,23,00,27,12.60
2015,06,23,00,28,12.60
2015,06,23,00,29,12.60
2015,06,23,00,30,12.60
2015,06,23,00,31,12.60
2015,06,23,00,32,12.60
2015,06,23,00,33,12.50
2015,06,23,00,34,12.50
2015,06,23,00,35,12.50
2015,06,23,00,36,12.50
2015,06,23,00,37,12.50
2015,06,23,00,38,12.40
2015,06,23,00,39,12.40
2015,06,23,00,40,12.40
2015,06,23,00,41,12.40
2015,06,23,00,42,12.40
2015,06,23,00,43,12.40
2015,06,23,00,44,12.40
2015,06,23,00,45,12.30
2015,06,23,00,46,12.30
2015,06,23,00,47,12.30
2015,06,23,00,48,12.30
2015,06,23,00,49,12.30
2015,06,23,00,50,12.30
2015,06,23,00,51,12.20
2015,06,23,00,52,12.20
2015,06,23,00,53,12.20
2015,06,23,00,54,12.20
2015,06,23,00,55,12.20
2015,06,23,00,56,12.20
2015,06,23,00,57,12.20
2015,06,23,00,58,12.20
2015,06,23,00,59,12.20
2015,06,23,01,00,12.20
2015,06,23,01,01,12.20
2015,06,23,01,02,12.20
2015,06,23,01,03,12.20
2015,06,23,01,04,12.20
2015,06,23,01,05,12.20
2015,06,23,01,06,12.20
2015,06,23,01,07,12.20
2015,06,23,01,08,12.20
2015,06,23,01,09,12.20
2015,06,23,01,10,12.20
2015,06,23,01,11,12.10
2015,06,23,01,12,12.10
2015,06,23,01,13,12.10
2015,06,23,01,14,12.10
2015,06,23,01,15,12.10
2015,06,23,01,16,12.10
2015,06,23,01,17,12.10
2015,06,23,01,18,12.00
2015,06,23,01,19,12.00
2015,06,23,01,20,12.00
2015,06,23,01,21,12.00
2015,06,23,01,22,11.90
2015,06,23,01,23,11.90
2015,06,23,01,24,11.90
2015,06,23,01,25,11.90
2015,06,23,01,26,11.90
2015,06,23,01,27,11.90
2015,06,23,01,28,11.90
2015,06,23,01,29,11.90
2015,06,23,01,30,11.80
2015,06,23,01,31,11.80
2015,06,23,01,32,11.80
2015,06,23,01,33,11.80
2015,06,23,01,34,11.80
2015,06,23,01,35,11.80
2015,06,23,01,36,11.80
2015,06,23,01,37,11.70
2015,06,23,01,38,11.70
2015,06,23,01,39,11.70
2015,06,23,01,40,11.70
2015,06,23,01,41,11.70
2015,06,23,01,42,11.70
2015,06,23,01,43,11.70
2015,06,23,01,44,11.70
2015,06,23,01,45,11.70
2015,06,23,01,46,11.70
2015,06,23,01,47,11.70
2015,06,23,01,48,11.70
2015,06,23,01,49,11.70
2015,06,23,01,50,11.70
2015,06,23,01,51,11.70
2015,06,23,01,52,11.70
2015,06,23,01,53,11.70
2015,06,23,01,54,11.70
2015,06,23,01,55,11.70
2015,06,23,01,56,11.70
2015,06,23,01,57,11.70
2015,06,23,01,58,11.70
2015,06,23,01,59,11.70
2015,06,23,02,00,11.70
2015,06,23,02,01,11.70
2015,06,23,02,02,11.70
2015,06,23,02,03,11.70
2015,06,23,02,04,11.70
2015,06,23,02,05,11.60
2015,06,23,02,06,11.60
2015,06,23,02,07,11.60
2015,06,23,02,08,11.60
2015,06,23,02,09,11.60
2015,06,23,02,10,11.60
2015,06,23,02,11,11.50
2015,06,23,02,12,11.50
2015,06,23,02,13,11.50
2015,06,23,02,14,11.40
2015,06,23,02,15,11.40
2015,06,23,02,16,11.40
2015,06,23,02,17,11.40
2015,06,23,02,18,11.40
2015,06,23,02,19,11.40
2015,06,23,02,20,11.40
2015,06,23,02,21,11.40
2015,06,23,02,22,11.40
2015,06,23,02,23,11.40
2015,06,23,02,24,11.40
2015,06,23,02,25,11.40
2015,06,23,02,26,11.40
2015,06,23,02,27,11.40
2015,06,23,02,28,11.40
2015,06,23,02,29,11.40
2015,06,23,02,30,11.40
2015,06,23,02,31,11.40
2015,06,23,02,32,11.40
2015,06,23,02,33,11.40
2015,06,23,02,34,11.40
2015,06,23,02,35,11.30
2015,06,23,02,36,11.30
2015,06,23,02,37,11.30
2015,06,23,02,38,11.30
2015,06,23,02,39,11.30
2015,06,23,02,40,11.30
2015,06,23,02,41,11.30
2015,06,23,02,42,11.30
2015,06,23,02,43,11.20
2015,06,23,02,44,11.20
2015,06,23,02,45,11.20
2015,06,23,02,46,11.20
2015,06,23,02,47,11.20
2015,06,23,02,48,11.20
2015,06,23,02,49,11.20
2015,06,23,02,50,11.20
2015,06,23,02,51,11.20
2015,06,23,02,52,11.20
2015,06,23,02,53,11.20
2015,06,23,02,54,11.20
2015,06,23,02,55,11.10
2015,06,23,02,56,11.10
2015,06,23,02,57,11.10
2015,06,23,02,58,11.10
2015,06,23,02,59,11.10
2015,06,23,03,00,11.10
2015,06,23,03,01,11.10
2015,06,23,03,02,11.10
2015,06,23,03,03,11.10
2015,06,23,03,04,11.10
2015,06,23,03,05,11.10
2015,06,23,03,06,11.10
2015,06,23,03,07,11.10
2015,06,23,03,08,11.00
2015,06,23,03,09,11.00
2015,06,23,03,10,11.00
2015,06,23,03,11,11.10
2015,06,23,03,12,11.10
2015,06,23,03,13,11.10
2015,06,23,03,14,11.10
2015,06,23,03,15,11.10
2015,06,23,03,16,11.10
2015,06,23,03,17,11.20
2015,06,23,03,18,11.20
2015,06,23,03,19,11.20
2015,06,23,03,20,11.20
2015,06,23,03,21,11.20
2015,06,23,03,22,11.30
2015,06,23,03,23,11.30
2015,06,23,03,24,11.30
2015,06,23,03,25,11.30
2015,06,23,03,26,11.30
2015,06,23,03,27,11.30
2015,06,23,03,28,11.30
2015,06,23,03,29,11.20
2015,06,23,03,30,11.20
2015,06,23,03,31,11.20
2015,06,23,03,32,11.20
2015,06,23,03,33,11.20
2015,06,23,03,34,11.10
2015,06,23,03,35,11.10
2015,06,23,03,36,11.10
2015,06,23,03,37,11.10
2015,06,23,03,38,11.10
2015,06,23,03,39,11.10
2015,06,23,03,40,11.10
2015,06,23,03,41,11.10
2015,06,23,03,42,11.10
2015,06,23,03,43,11.00
2015,06,23,03,44,11.00
2015,06,23,03,45,11.00
2015,06,23,03,46,11.00
2015,06,23,03,47,11.00
2015,06,23,03,48,10.90
2015,06,23,03,49,10.90
2015,06,23,03,50,10.90
2015,06,23,03,51,10.90
2015,06,23,03,52,10.90
2015,06,23,03,53,10.90
2015,06,23,03,54,10.90
2015,06,23,03,55,10.90
2015,06,23,03,56,10.90
2015,06,23,03,57,10.90
2015,06,23,03,58,10.90
2015,06,23,03,59,10.90
2015,06,23,04,00,10.90
2015,06,23,04,01,11.00
2015,06,23,04,02,11.00
2015,06,23,04,03,11.00
2015,06,23,04,04,10.90
2015,06,23,04,05,10.90
2015,06,23,04,06,10.90
2015,06,23,05,02,10.40
2015,06,23,05,03,10.40
2015,06,23,05,04,10.40
2015,06,23,05,05,10.30
2015,06,23,05,06,10.30
2015,06,23,05,07,10.30
2015,06,23,05,08,10.30
2015,06,23,05,09,10.30
2015,06,23,05,10,10.30
2015,06,23,05,11,10.20
2015,06,23,05,12,10.20
2015,06,23,05,13,10.20
2015,06,23,05,14,10.20
2015,06,23,05,15,10.10
2015,06,23,05,16,10.10
2015,06,23,05,17,10.10
2015,06,23,05,18,10.10
2015,06,23,05,19,10.10
2015,06,23,05,20,10.10
2015,06,23,05,21,10.10
2015,06,23,05,22,10.10
2015,06,23,05,23,10.10
2015,06,23,05,24,10.00
2015,06,23,05,25,10.00
2015,06,23,05,26,10.00
2015,06,23,05,27,10.00
2015,06,23,05,28,10.00
2015,06,23,05,29,10.00
2015,06,23,05,30,10.00
2015,06,23,05,31,9.90
2015,06,23,05,32,9.90
2015,06,23,05,33,9.90
2015,06,23,05,34,9.90
2015,06,23,05,35,9.90
2015,06,23,05,36,9.90
2015,06,23,05,37,9.90
2015,06,23,05,38,9.90
2015,06,23,05,39,9.90
2015,06,23,05,40,9.90
2015,06,23,05,41,9.90
2015,06,23,05,42,10.00
2015,06,23,05,43,10.00
2015,06,23,05,44,10.00
2015,06,23,05,45,10.10
2015,06,23,05,46,10.10
2015,06,23,05,47,10.10
2015,06,23,05,48,10.10
2015,06,23,05,49,10.10
2015,06,23,05,50,10.10
2015,06,23,05,51,10.10
2015,06,23,05,52,10.20
2015,06,23,05,53,10.20
2015,06,23,05,54,10.20
2015,06,23,05,55,10.20
2015,06,23,05,56,10.20
2015,06,23,05,57,10.20
2015,06,23,05,58,10.20
2015,06,23,05,59,10.30
2015,06,23,06,00,10.30
2015,06,23,06,01,10.30
2015,06,23,06,02,10.30
2015,06,23,06,03,10.30
2015,06,23,06,04,10.40
2015,06,23,06,05,10.40
2015,06,23,06,06,10.40
2015,06,23,06,07,10.50
2015,06,23,06,08,10.50
2015,06,23,06,09,10.60
2015,06,23,06,10,10.60
2015,06,23,06,11,10.60
2015,06,23,06,12,10.60
2015,06,23,06,13,10.60
2015,06,23,06,14,10.60
2015,06,23,06,15,10.60
2015,06,23,06,16,10.70
2015,06,23,06,17,10.70
2015,06,23,06,18,10.70
2015,06,23,06,19,10.80
2015,06,23,06,20,10.80
2015,06,23,06,21,10.80
2015,06,23,06,22,10.90
2015,06,23,06,23,10.90
2015,06,23,06,24,11.00
2015,06,23,06,25,11.00
2015,06,23,06,26,11.10
2015,06,23,06,27,11.10
2015,06,23,06,28,11.20
2015,06,23,06,29,11.30
2015,06,23,06,30,11.30
2015,06,23,06,31,11.40
2015,06,23,06,32,11.40
2015,06,23,06,33,11.50
2015,06,23,06,34,11.50
2015,06,23,06,35,11.60
2015,06,23,06,36,11.60
2015,06,23,06,37,11.70
2015,06,23,06,38,11.70
2015,06,23,06,39,11.80
2015,06,23,06,40,11.80
2015,06,23,06,41,11.90
2015,06,23,06,42,11.90
2015,06,23,06,43,12.00
2015,06,23,06,44,12.10
2015,06,23,06,45,12.20
2015,06,23,06,46,12.30
2015,06,23,06,47,12.40
2015,06,23,06,48,12.50
2015,06,23,06,49,12.60
2015,06,23,06,50,12.60
2015,06,23,06,51,12.60
2015,06,23,06,52,12.70
2015,06,23,06,53,12.70
2015,06,23,06,54,12.70
2015,06,23,06,55,12.70
2015,06,23,06,56,12.80
2015,06,23,06,57,12.80
2015,06,23,06,58,12.80
2015,06,23,06,59,12.90
2015,06,23,07,00,12.90
2015,06,23,07,01,12.90
2015,06,23,07,02,13.00
2015,06,23,07,03,13.10
2015,06,23,07,04,13.10
2015,06,23,07,05,13.10
2015,06,23,07,06,13.20
2015,06,23,07,07,13.20
2015,06,23,07,08,13.20
2015,06,23,07,09,13.30
2015,06,23,07,10,13.30
2015,06,23,07,11,13.40
2015,06,23,07,12,13.40
2015,06,23,07,13,13.40
2015,06,23,07,14,13.50
2015,06,23,07,15,13.50
2015,06,23,07,16,13.50
2015,06,23,07,17,13.50
2015,06,23,07,18,13.40
2015,06,23,07,19,13.40
2015,06,23,07,20,13.40
2015,06,23,07,21,13.40
2015,06,23,07,22,13.40
2015,06,23,07,23,13.50
2015,06,23,07,24,13.50
2015,06,23,07,25,13.60
2015,06,23,07,26,13.60
2015,06,23,07,27,13.60
2015,06,23,07,28,13.60
2015,06,23,07,29,13.60
2015,06,23,07,30,13.60
2015,06,23,07,31,13.70
2015,06,23,07,32,13.70
2015,06,23,07,33,13.80
2015,06,23,07,34,13.80
2015,06,23,07,35,13.90
2015,06,23,07,36,14.00
2015,06,23,07,37,14.00
2015,06,23,07,38,14.10
2015,06,23,07,39,14.20
2015,06,23,07,40,14.20
2015,06,23,07,41,14.20
2015,06,23,07,42,14.20
2015,06,23,07,43,14.20
2015,06,23,07,44,14.20
2015,06,23,07,45,14.20
2015,06,23,07,46,14.20
2015,06,23,07,47,14.30
2015,06,23,07,48,14.20
2015,06,23,07,49,14.20
2015,06,23,07,50,14.20
2015,06,23,07,51,14.10
2015,06,23,07,52,14.10
2015,06,23,07,53,14.00
2015,06,23,07,54,14.00
2015,06,23,07,55,14.00
2015,06,23,07,56,14.00
2015,06,23,07,57,14.00
2015,06,23,07,58,14.00
2015,06,23,07,59,14.10
2015,06,23,08,00,14.20
2015,06,23,08,01,14.20
2015,06,23,08,02,14.20
2015,06,23,08,03,14.20
2015,06,23,08,04,14.20
2015,06,23,08,05,14.30
2015,06,23,08,06,14.30
2015,06,23,08,07,14.30
2015,06,23,08,08,14.40
2015,06,23,08,09,14.50
2015,06,23,08,10,14.50
2015,06,23,08,11,14.50
2015,06,23,08,12,14.50
2015,06,23,08,13,14.40
2015,06,23,08,14,14.40
2015,06,23,08,15,14.50
2015,06,23,08,16,14.50
2015,06,23,08,17,14.60
2015,06,23,08,18,14.70
2015,06,23,08,19,14.70
2015,06,23,08,20,14.70
2015,06,23,08,21,14.70
2015,06,23,08,22,14.70
2015,06,23,08,23,14.80
2015,06,23,08,24,14.90
2015,06,23,08,25,14.90
2015,06,23,08,26,14.90
2015,06,23,08,27,15.00
2015,06,23,08,28,15.00
2015,06,23,08,29,15.00
2015,06,23,08,30,15.00
2015,06,23,08,31,15.00
2015,06,23,08,32,15.00
2015,06,23,08,33,15.00
2015,06,23,08,34,15.00
2015,06,23,08,35,15.00
2015,06,23,08,36,15.10
2015,06,23,08,37,15.00
2015,06,23,08,38,15.00
2015,06,23,08,39,15.00
2015,06,23,08,40,15.00
2015,06,23,08,41,15.10
2015,06,23,08,42,15.10
2015,06,23,08,43,15.10
2015,06,23,08,44,15.20
2015,06,23,08,45,15.20
2015,06,23,08,46,15.20
2015,06,23,08,47,15.20
2015,06,23,08,48,15.20
2015,06,23,08,49,15.20
2015,06,23,08,50,15.30
2015,06,23,08,51,15.30
2015,06,23,08,52,15.30
2015,06,23,08,53,15.30
2015,06,23,08,54,15.20
2015,06,23,08,55,15.20
2015,06,23,08,56,15.20
2015,06,23,08,57,15.30
2015,06,23,08,58,15.30
2015,06,23,08,59,15.30
2015,06,23,09,00,15.40
2015,06,23,09,01,15.50
2015,06,23,09,02,15.60
2015,06,23,09,03,15.60
2015,06,23,09,04,15.70
2015,06,23,09,05,15.70
2015,06,23,09,06,15.70
2015,06,23,09,07,15.70
2015,06,23,09,08,15.80
2015,06,23,09,09,15.80
2015,06,23,09,10,15.70
2015,06,23,09,11,15.70
2015,06,23,09,12,15.70
2015,06,23,09,13,15.70
2015,06,23,09,14,15.70
2015,06,23,09,15,15.70
2015,06,23,09,16,15.70
2015,06,23,09,17,15.70
2015,06,23,09,18,15.70
2015,06,23,09,19,15.70
2015,06,23,09,20,15.70
2015,06,23,09,21,15.70
2015,06,23,09,22,15.70
2015,06,23,09,23,15.70
2015,06,23,09,24,15.70
2015,06,23,09,25,15.70
2015,06,23,09,26,15.70
2015,06,23,09,27,15.70
2015,06,23,09,28,15.70
2015,06,23,09,29,15.70
2015,06,23,09,30,15.80
2015,06,23,09,31,15.80
2015,06,23,09,32,15.80
2015,06,23,09,33,15.80
2015,06,23,09,34,15.80
2015,06,23,09,35,15.80
2015,06,23,09,36,15.90
2015,06,23,09,37,15.90
2015,06,23,09,38,15.90
2015,06,23,09,39,15.90
2015,06,23,09,40,15.90
2015,06,23,09,41,15.90
2015,06,23,09,42,16.00
2015,06,23,09,43,16.00
2015,06,23,09,44,15.90
2015,06,23,09,45,15.90
2015,06,23,09,46,15.90
2015,06,23,09,47,16.00
2015,06,23,09,48,16.10
2015,06,23,09,49,16.10
2015,06,23,09,50,16.20
2015,06,23,09,51,16.20
2015,06,23,09,52,16.30
2015,06,23,09,53,16.50
2015,06,23,09,54,16.60
2015,06,23,09,55,16.70
2015,06,23,09,56,16.80
2015,06,23,09,57,16.80
2015,06,23,09,58,16.80
2015,06,23,09,59,16.80
2015,06,23,10,00,16.80
2015,06,23,10,01,16.90
2015,06,23,10,02,17.00
2015,06,23,10,03,17.00
2015,06,23,10,04,17.10
2015,06,23,10,05,17.10
2015,06,23,10,06,17.20
2015,06,23,10,07,17.30
2015,06,23,10,08,17.30
2015,06,23,10,09,17.30
2015,06,23,10,10,17.30
2015,06,23,10,11,17.30
2015,06,23,10,12,17.30
2015,06,23,10,13,17.30
2015,06,23,10,14,17.40
2015,06,23,10,15,17.50
2015,06,23,10,16,17.60
2015,06,23,10,17,17.70
2015,06,23,10,18,17.80
2015,06,23,10,19,17.80
2015,06,23,10,20,17.80
2015,06,23,10,21,17.80
2015,06,23,10,22,17.80
2015,06,23,10,23,17.80
2015,06,23,10,24,17.80
2015,06,23,10,25,17.80
2015,06,23,10,26,17.80
2015,06,23,10,27,17.80
2015,06,23,10,28,17.80
2015,06,23,10,29,17.70
2015,06,23,10,30,17.70
2015,06,23,10,31,17.60
2015,06,23,10,32,17.60
2015,06,23,10,33,17.60
2015,06,23,10,34,17.60
2015,06,23,10,35,17.60
2015,06,23,10,36,17.70
2015,06,23,10,37,17.60
2015,06,23,10,38,17.70
2015,06,23,10,39,17.70
2015,06,23,10,40,17.80
2015,06,23,10,41,17.80
2015,06,23,10,42,17.90
2015,06,23,10,43,17.90
2015,06,23,10,44,18.00
2015,06,23,10,45,17.90
2015,06,23,10,46,17.90
2015,06,23,10,47,17.80
2015,06,23,10,48,17.80
2015,06,23,10,49,17.80
2015,06,23,10,50,17.80
2015,06,23,10,51,17.80
2015,06,23,10,52,17.80
2015,06,23,10,53,17.80
2015,06,23,10,54,17.80
2015,06,23,10,55,17.80
2015,06,23,10,56,17.80
2015,06,23,10,57,17.90
2015,06,23,10,58,18.00
2015,06,23,10,59,18.10
2015,06,23,11,00,18.10
2015,06,23,11,01,18.20
2015,06,23,11,02,18.30
2015,06,23,11,03,18.40
2015,06,23,11,04,18.50
2015,06,23,11,05,18.70
2015,06,23,11,06,18.80
2015,06,23,11,07,18.80
2015,06,23,11,08,18.90
2015,06,23,11,09,18.90
2015,06,23,11,10,18.90
2015,06,23,11,11,18.90
2015,06,23,11,12,19.00
2015,06,23,11,13,19.10
2015,06,23,11,14,19.10
2015,06,23,11,15,19.20
2015,06,23,11,16,19.20
2015,06,23,11,17,19.20
2015,06,23,11,18,19.20
2015,06,23,11,19,19.20
2015,06,23,11,20,19.20
2015,06,23,11,21,19.20
2015,06,23,11,22,19.20
2015,06,23,11,23,19.20
2015,06,23,11,24,19.20
2015,06,23,11,25,19.20
2015,06,23,11,26,19.20
2015,06,23,11,27,19.10
2015,06,23,11,28,19.10
2015,06,23,11,29,19.10
2015,06,23,11,30,19.00
2015,06,23,11,31,19.00
2015,06,23,11,32,19.10
2015,06,23,11,33,19.10
2015,06,23,11,34,19.20
2015,06,23,11,35,19.20
2015,06,23,11,36,19.20
2015,06,23,11,37,19.30
2015,06,23,11,38,19.30
2015,06,23,11,39,19.40
2015,06,23,11,40,19.40
2015,06,23,11,41,19.50
2015,06,23,11,42,19.60
2015,06,23,11,43,19.60
2015,06,23,11,44,19.70
2015,06,23,11,45,19.70
2015,06,23,11,46,19.70
2015,06,23,11,47,19.70
2015,06,23,11,48,19.70
2015,06,23,11,49,19.70
2015,06,23,11,50,19.70
2015,06,23,11,51,19.70
2015,06,23,11,52,19.70
2015,06,23,11,53,19.80
2015,06,23,11,54,19.80
2015,06,23,11,55,19.80
2015,06,23,11,56,19.80
2015,06,23,11,57,19.80
2015,06,23,11,58,19.80
2015,06,23,11,59,19.70
2015,06,23,12,00,19.70
2015,06,23,12,01,19.70
2015,06,23,12,02,19.70
2015,06,23,12,03,19.70
2015,06,23,12,04,19.70
2015,06,23,12,05,19.80
2015,06,23,12,06,19.80
2015,06,23,12,07,19.90
2015,06,23,12,08,20.00
2015,06,23,12,09,20.10
2015,06,23,12,10,20.20
2015,06,23,12,11,20.30
2015,06,23,12,12,20.40
2015,06,23,12,13,20.60
2015,06,23,12,14,20.60
2015,06,23,12,15,20.60
2015,06,23,12,16,20.70
2015,06,23,12,17,20.70
2015,06,23,12,18,20.70
2015,06,23,12,19,20.70
2015,06,23,12,20,20.70
2015,06,23,12,21,20.70
2015,06,23,12,22,20.70
2015,06,23,12,23,20.70
2015,06,23,12,24,20.70
2015,06,23,12,25,20.70
2015,06,23,12,26,20.70
2015,06,23,12,27,20.70
2015,06,23,12,28,20.70
2015,06,23,12,29,20.70
2015,06,23,12,30,20.70
2015,06,23,12,31,20.70
2015,06,23,12,32,20.70
2015,06,23,12,33,20.70
2015,06,23,12,34,20.70
2015,06,23,12,35,20.70
2015,06,23,12,36,20.70
2015,06,23,12,37,20.70
2015,06,23,12,38,20.70
2015,06,23,12,39,20.80
2015,06,23,12,40,20.90
2015,06,23,12,41,21.00
2015,06,23,12,42,21.10
2015,06,23,12,43,21.20
2015,06,23,12,44,21.30
2015,06,23,12,45,21.30
2015,06,23,12,46,21.40
2015,06,23,12,47,21.50
2015,06,23,12,48,21.60
2015,06,23,12,49,21.60
2015,06,23,12,50,21.70
2015,06,23,12,51,21.70
2015,06,23,12,52,21.70
2015,06,23,12,53,21.70
2015,06,23,12,54,21.70
2015,06,23,12,55,21.70
2015,06,23,12,56,21.80
2015,06,23,12,57,21.80
2015,06,23,12,58,21.80
2015,06,23,12,59,21.80
2015,06,23,13,00,21.80
2015,06,23,13,01,22.00
2015,06,23,13,02,22.20
2015,06,23,13,03,22.30
2015,06,23,13,04,22.30
2015,06,23,13,05,22.30
2015,06,23,13,06,22.30
2015,06,23,13,07,22.20
2015,06,23,13,08,22.20
2015,06,23,13,09,22.10
2015,06,23,13,10,22.20
2015,06,23,13,11,22.20
2015,06,23,13,12,22.20
2015,06,23,13,13,22.10
2015,06,23,13,14,22.10
2015,06,23,13,15,22.10
2015,06,23,13,16,22.10
2015,06,23,13,17,22.10
2015,06,23,13,18,22.20
2015,06,23,13,19,22.30
2015,06,23,13,20,22.30
2015,06,23,13,21,22.30
2015,06,23,13,22,22.30
2015,06,23,13,23,22.50
2015,06,23,13,24,22.60
2015,06,23,13,25,22.60
2015,06,23,13,26,22.60
2015,06,23,13,27,22.70
2015,06,23,13,28,22.70
2015,06,23,13,29,22.70
2015,06,23,13,30,22.70
2015,06,23,13,31,22.60
2015,06,23,13,32,22.60
2015,06,23,13,33,22.80
2015,06,23,13,34,22.90
2015,06,23,13,35,23.00
2015,06,23,13,36,23.00
2015,06,23,13,37,23.10
2015,06,23,13,38,23.20
2015,06,23,13,39,23.30
2015,06,23,13,40,23.30
2015,06,23,13,41,23.20
2015,06,23,13,42,23.20
2015,06,23,13,43,23.20
2015,06,23,13,44,23.10
2015,06,23,13,45,23.20
2015,06,23,13,46,23.20
2015,06,23,13,47,23.30
2015,06,23,13,48,23.40
2015,06,23,13,49,23.50
2015,06,23,13,50,23.50
2015,06,23,13,51,23.50
2015,06,23,13,52,23.50
2015,06,23,13,53,23.40
2015,06,23,13,54,23.40
2015,06,23,13,55,23.30
2015,06,23,13,56,23.30
2015,06,23,13,57,23.30
2015,06,23,13,58,23.30
2015,06,23,13,59,23.20
2015,06,23,14,00,23.20
2015,06,23,14,01,23.20
2015,06,23,14,02,23.20
2015,06,23,14,03,23.20
2015,06,23,14,04,23.10
2015,06,23,14,05,23.20
2015,06,23,14,06,23.30
2015,06,23,14,07,23.40
2015,06,23,14,08,23.50
2015,06,23,14,09,23.70
2015,06,23,14,10,23.70
2015,06,23,14,11,23.70
2015,06,23,14,12,23.60
2015,06,23,14,13,23.60
2015,06,23,14,14,23.60
2015,06,23,14,15,23.60
2015,06,23,14,16,23.60
2015,06,23,14,17,23.70
2015,06,23,14,18,23.70
2015,06,23,14,19,23.70
2015,06,23,14,20,23.70
2015,06,23,14,21,23.70
2015,06,23,14,22,23.70
2015,06,23,14,23,23.80
2015,06,23,14,24,23.80
2015,06,23,14,25,23.80
2015,06,23,14,26,23.80
2015,06,23,14,27,23.80
2015,06,23,14,28,23.70
2015,06,23,14,29,23.70
2015,06,23,14,30,23.80
2015,06,23,14,31,23.80
2015,06,23,14,32,23.90
2015,06,23,14,33,24.00
2015,06,23,14,34,24.00
2015,06,23,14,35,24.00
2015,06,23,14,36,24.00
2015,06,23,14,37,24.10
2015,06,23,14,38,24.20
2015,06,23,14,39,24.20
2015,06,23,14,40,24.20
2015,06,23,14,41,24.20
2015,06,23,14,42,24.30
2015,06,23,14,43,24.40
2015,06,23,14,44,24.50
2015,06,23,14,45,24.50
2015,06,23,14,46,24.60
2015,06,23,14,47,24.50
2015,06,23,14,48,24.40
2015,06,23,14,49,24.50
2015,06,23,14,50,24.60
2015,06,23,14,51,24.70
2015,06,23,14,52,24.70
2015,06,23,14,53,24.80
2015,06,23,14,54,24.80
2015,06,23,14,55,24.80
2015,06,23,14,56,24.90
2015,06,23,14,57,24.80
2015,06,23,14,58,24.90
2015,06,23,14,59,24.90
2015,06,23,15,00,25.00
2015,06,23,15,01,25.10
2015,06,23,15,02,25.20
2015,06,23,15,03,25.30
2015,06,23,15,04,25.40
2015,06,23,15,05,25.40
2015,06,23,15,06,25.50
2015,06,23,15,07,25.50
2015,06,23,15,08,25.60
2015,06,23,15,09,25.70
2015,06,23,15,10,25.80
2015,06,23,15,11,25.80
2015,06,23,15,12,25.80
2015,06,23,15,13,25.80
2015,06,23,15,14,25.80
2015,06,23,15,15,25.80
2015,06,23,15,16,25.80
2015,06,23,15,17,25.90
2015,06,23,15,18,25.90
2015,06,23,15,19,25.90
2015,06,23,15,20,26.00
2015,06,23,15,21,26.00
2015,06,23,15,22,26.00
2015,06,23,15,23,26.00
2015,06,23,15,24,26.00
2015,06,23,15,25,26.10
2015,06,23,15,26,26.10
2015,06,23,15,27,26.10
2015,06,23,15,28,26.10
2015,06,23,15,29,26.10
2015,06,23,15,30,26.10
2015,06,23,15,31,26.10
2015,06,23,15,32,26.10
2015,06,23,15,33,26.10
2015,06,23,15,34,26.00
2015,06,23,15,35,26.00
2015,06,23,15,36,26.00
2015,06,23,15,37,26.00
2015,06,23,15,38,26.00
2015,06,23,15,39,25.90
2015,06,23,15,40,25.70
2015,06,23,15,41,25.70
2015,06,23,15,42,25.70
2015,06,23,15,43,25.70
2015,06,23,15,44,25.80
2015,06,23,15,45,26.00
2015,06,23,15,46,26.10
2015,06,23,15,47,26.20
2015,06,23,15,48,26.30
2015,06,23,15,49,26.30
2015,06,23,15,50,26.40
2015,06,23,15,51,26.50
2015,06,23,15,52,26.60
2015,06,23,15,53,26.60
2015,06,23,15,54,26.60
2015,06,23,15,55,26.60
2015,06,23,15,56,26.50
2015,06,23,15,57,26.40
2015,06,23,15,58,26.50
2015,06,23,15,59,26.50
2015,06,23,16,00,26.50
2015,06,23,16,01,26.60
2015,06,23,16,02,26.60
2015,06,23,16,03,26.60
2015,06,23,16,04,26.60
2015,06,23,16,05,26.60
2015,06,23,16,06,26.50
2015,06,23,16,07,26.50
2015,06,23,16,08,26.50
2015,06,23,16,09,26.50
2015,06,23,16,10,26.50
2015,06,23,16,11,26.50
2015,06,23,16,12,26.50
2015,06,23,16,13,26.50
2015,06,23,16,14,26.50
2015,06,23,16,15,26.50
2015,06,23,16,16,26.50
2015,06,23,16,17,26.50
2015,06,23,16,18,26.50
2015,06,23,16,19,26.60
2015,06,23,16,20,26.60
2015,06,23,16,21,26.70
2015,06,23,16,22,26.70
2015,06,23,16,23,26.70
2015,06,23,16,24,26.70
2015,06,23,16,25,26.70
2015,06,23,16,26,26.60
2015,06,23,16,27,26.60
2015,06,23,16,28,26.60
2015,06,23,16,29,26.60
2015,06,23,16,30,26.60
2015,06,23,16,31,26.60
2015,06,23,16,32,26.70
2015,06,23,16,33,26.60
2015,06,23,16,34,26.60
2015,06,23,16,35,26.50
2015,06,23,16,36,26.40
2015,06,23,16,37,26.20
2015,06,23,16,38,26.20
2015,06,23,16,39,26.10
2015,06,23,16,40,26.10
2015,06,23,16,41,26.10
2015,06,23,16,42,26.20
2015,06,23,16,43,26.20
2015,06,23,16,44,26.30
2015,06,23,16,45,26.40
2015,06,23,16,46,26.50
2015,06,23,16,47,26.50
2015,06,23,16,48,26.60
2015,06,23,16,49,26.50
2015,06,23,16,50,26.50
2015,06,23,16,51,26.50
2015,06,23,16,52,26.50
2015,06,23,16,53,26.50
2015,06,23,16,54,26.60
2015,06,23,16,55,26.60
2015,06,23,16,56,26.60
2015,06,23,16,57,26.70
2015,06,23,16,58,26.60
2015,06,23,16,59,26.50
2015,06,23,17,00,26.30
2015,06,23,17,01,26.30
2015,06,23,17,02,26.30
2015,06,23,17,03,26.30
2015,06,23,17,04,26.40
2015,06,23,17,05,26.40
2015,06,23,17,06,26.40
2015,06,23,17,07,26.30
2015,06,23,17,08,26.20
2015,06,23,17,09,26.20
2015,06,23,17,10,26.20
2015,06,23,17,11,26.20
2015,06,23,17,12,26.30
2015,06,23,17,13,26.30
2015,06,23,17,14,26.30
2015,06,23,17,15,26.30
2015,06,23,17,16,26.20
2015,06,23,17,17,26.20
2015,06,23,17,18,26.20
2015,06,23,17,19,26.20
2015,06,23,17,20,26.30
2015,06,23,17,21,26.30
2015,06,23,17,22,26.30
2015,06,23,17,23,26.40
2015,06,23,17,24,26.40
2015,06,23,17,25,26.50
2015,06,23,17,26,26.60
2015,06,23,17,27,26.60
2015,06,23,17,28,26.70
2015,06,23,17,29,26.70
2015,06,23,17,30,26.70
2015,06,23,17,31,26.70
2015,06,23,17,32,26.70
2015,06,23,17,33,26.70
2015,06,23,17,34,26.70
2015,06,23,17,35,26.80
2015,06,23,17,36,26.80
2015,06,23,17,37,26.90
2015,06,23,17,38,27.00
2015,06,23,17,39,27.00
2015,06,23,17,40,27.00
2015,06,23,17,41,26.90
2015,06,23,17,42,26.90
2015,06,23,17,43,26.90
2015,06,23,17,44,26.80
2015,06,23,17,45,26.80
2015,06,23,17,46,26.80
2015,06,23,17,47,26.80
2015,06,23,17,48,26.90
2015,06,23,17,49,26.90
2015,06,23,17,50,26.80
2015,06,23,17,51,26.70
2015,06,23,17,52,26.60
2015,06,23,17,53,26.60
2015,06,23,17,54,26.60
2015,06,23,17,55,26.60
2015,06,23,17,56,26.40
2015,06,23,17,57,26.40
2015,06,23,17,58,26.30
2015,06,23,17,59,26.20
2015,06,23,18,00,26.10
2015,06,23,18,01,26.10
2015,06,23,18,02,26.00
2015,06,23,18,03,25.90
2015,06,23,18,04,25.90
2015,06,23,18,05,25.90
2015,06,23,18,06,25.80
2015,06,23,18,07,25.80
2015,06,23,18,08,25.70
2015,06,23,18,09,25.70
2015,06,23,18,10,25.60
2015,06,23,18,11,25.60
2015,06,23,18,12,25.50
2015,06,23,18,13,25.50
2015,06,23,18,14,25.50